Starlink 4710

operational
NORAD ID: 53799 Int'l Des: 2022-111 Owner: SPXS Country: US Constellation: starlink
LEOCIRCULAR

Über Starlink 4710

Beschreibung wird geladen...

Live-Position

3D-Globus wird geladen...

Nächste Überflüge

Höhenverlauf

Altitude vs Time

uPlot chart will show altitude changes over time

Zweizeiliger Elementsatz

1 53799U 22111AC 26063.64414972 .00000806 00000-0 68736-4 0 9992
2 53799 53.2174 286.8441 0001270 93.8597 266.2541 15.08836361193056
Epoch: 4. März 2026 • Age: 19 hours

Aktueller Status

Höhe 541.2 km
Geschwindigkeit 7.60 km/s
Subsatellitenpunkt 31.57°N, 131.42°W
Startdatum 11. Sept. 2022
Alter 3.4 years
Typ internet

Technische Details

Klassifizierung Payload
Masse 305.00 kg
Trockenmasse 290.00 kg
Gesamtmasse 305.00 kg
Länge 0.20 m
Durchmesser 2.80 m
Spannweite 9.00 m
Form Box + pan
Hersteller SPXS
Bus-Typ Starlink
Phasenstatus In Orbit
Besitzer/Staat SPXS/US

Große Konstellationen

Loading constellations...